�N����,����,�g�[���i�L�b�`���j���x,�g�[�����x,��g�[���i���ʏ��j���x,����
 2003/04/01, 0:00,20.5,51,16.2,15.3
 2003/04/01, 0:15,20.2,51,16.2,15.3
 2003/04/01, 0:30,20,51,16.2,14.2
 2003/04/01, 0:45,19.9,51,16.1,14.3
 2003/04/01, 1:00,19.7,51,16.1,14.3
 2003/04/01, 1:15,19.6,51,16.1,14.4
 2003/04/01, 1:30,19.4,51,16,14.5
 2003/04/01, 1:45,19.3,51,16,14.6
 2003/04/01, 2:00,19.1,51,16,14.7
 2003/04/01, 2:15,19.1,51,15.8,14.7
 2003/04/01, 2:30,18.9,51,15.8,14.8
 2003/04/01, 2:45,18.9,51,15.7,14.9
 2003/04/01, 3:00,18.8,51,15.7,15
 2003/04/01, 3:15,18.6,52,15.6,15.1
 2003/04/01, 3:30,18.6,52,15.5,15.2
 2003/04/01, 3:45,18.5,52,15.5,15.2
 2003/04/01, 4:00,18.4,52,15.4,15.3
 2003/04/01, 4:15,18.4,52,15.4,14.5
 2003/04/01, 4:30,18.2,52,15.3,14.6
 2003/04/01, 4:45,18.2,51,15.2,14.6
 2003/04/01, 5:00,18.1,52,15.1,14.7
 2003/04/01, 5:15,18.1,51,15,14.7
 2003/04/01, 5:30,18,51,15,14.8
 2003/04/01, 5:45,18,51,15,14.8
 2003/04/01, 6:00,17.8,51,15,14.1
 2003/04/01, 6:15,19.1,52,14.8,14.1
 2003/04/01, 6:30,19.9,51,15,14.2
 2003/04/01, 6:45,21,49,15.1,14.2
 2003/04/01, 7:00,21.2,49,15.7,14.3
 2003/04/01, 7:15,21.7,48,15.6,14.4
 2003/04/01, 7:30,21.9,48,15.9,14.5
 2003/04/01, 7:45,21.6,48,15.7,14.5
 2003/04/01, 8:00,21.3,48,16.3,14.6
 2003/04/01, 8:15,20.9,49,16.1,14.7
 2003/04/01, 8:30,20.7,49,16.2,14.7
 2003/04/01, 8:45,20.6,49,16.4,14.1
 2003/04/01, 9:00,20.7,49,16.3,14.1
 2003/04/01, 9:15,20.6,49,16.5,13.8
 2003/04/01, 9:30,20.4,49,16.8,13.8
 2003/04/01, 9:45,20.1,49,17.1,13.9
 2003/04/01,10:00,19.9,49,17.2,14
 2003/04/01,10:15,19.8,49,17.5,14
 2003/04/01,10:30,19.7,49,17.6,14.1
 2003/04/01,10:45,19.4,50,17.8,14.2
 2003/04/01,11:00,19.5,52,17.9,14.3
 2003/04/01,11:15,19.2,50,17.9,14.3
 2003/04/01,11:30,19.1,49,17.9,14.4
 2003/04/01,11:45,18.9,48,18,14.5
 2003/04/01,12:00,18.9,49,18,14.6
 2003/04/01,12:15,19.6,51,18.3,14.6
 2003/04/01,12:30,20,52,18.6,14.2
 2003/04/01,12:45,20.2,52,18.7,14.3
 2003/04/01,13:00,20.1,52,18.9,14.3
 2003/04/01,13:15,20,51,18.9,14.4
 2003/04/01,13:30,19.9,51,19,14.4
 2003/04/01,13:45,19.8,50,18.9,14.5
 2003/04/01,14:00,19.6,51,18.8,14.6
 2003/04/01,14:15,19.5,50,18.7,14.7
 2003/04/01,14:30,19.4,50,18.8,14.7
 2003/04/01,14:45,19.4,50,18.8,14.8
 2003/04/01,15:00,19.4,52,18.8,14.9
 2003/04/01,15:15,19.3,53,18.7,15
 2003/04/01,15:30,19.3,53,18.6,15.1
 2003/04/01,15:45,19.3,52,18.4,15.2
 2003/04/01,16:00,19.3,52,18.3,14.6
 2003/04/01,16:15,19.3,52,18.2,14.7
 2003/04/01,16:30,19.3,53,18,14.7
 2003/04/01,16:45,19.4,54,17.9,14.8
 2003/04/01,17:00,19.4,53,17.8,14.8
 2003/04/01,17:15,19.3,53,17.6,14.9
 2003/04/01,17:30,19.3,53,17.5,15
 2003/04/01,17:45,19.2,53,17.8,13.4
 2003/04/01,18:00,19.2,53,18.3,13.5
 2003/04/01,18:15,19.2,53,18.4,13.6
 2003/04/01,18:30,19.1,53,18.3,13.7
 2003/04/01,18:45,19.3,54,19.8,13.7
 2003/04/01,19:00,19.4,55,19,13.8
 2003/04/01,19:15,19.5,56,18.5,13.9
 2003/04/01,19:30,20.3,57,18.2,14
 2003/04/01,19:45,21.7,52,18.5,14.1
 2003/04/01,20:00,22.1,52,18.9,14.2
 2003/04/01,20:15,22.1,50,18.7,14.3
 2003/04/01,20:30,22.1,50,18.3,14.4
 2003/04/01,20:45,22.1,49,18.2,14.6
 2003/04/01,21:00,22.1,49,18,14.6
 2003/04/01,21:15,22.2,49,18.5,14.7
 2003/04/01,21:30,22.3,48,18,14.8
 2003/04/01,21:45,22.2,48,18.1,14.9
 2003/04/01,22:00,22.3,48,18.3,14.9
 2003/04/01,22:15,21.7,49,17.6,15
 2003/04/01,22:30,21.8,50,17.4,15.1
 2003/04/01,22:45,21.5,49,17.2,15.2
 2003/04/01,23:00,21.2,49,17,15.3
 2003/04/01,23:15,20.9,49,16.8,15.4
 2003/04/01,23:30,20.7,49,16.8,15.5
 2003/04/01,23:45,20.5,49,16.6,15.6
 2003/04/02, 0:00,20.3,50,16.6,15.7
 2003/04/02, 0:15,20.1,50,16.5,15.8
 2003/04/02, 0:30,20,50,16.3,15.9
 2003/04/02, 0:45,19.8,50,16.2,16
 2003/04/02, 1:00,19.6,51,16.2,16.1
 2003/04/02, 1:15,19.5,51,16.2,14.9
 2003/04/02, 1:30,19.4,51,16.1,14.9
 2003/04/02, 1:45,19.3,51,16,15
 2003/04/02, 2:00,19.1,51,16,15.1
 2003/04/02, 2:15,19,52,15.9,15.2
 2003/04/02, 2:30,18.9,52,15.9,15.2
 2003/04/02, 2:45,18.9,52,15.8,15.3
 2003/04/02, 3:00,18.8,52,15.8,15.4
 2003/04/02, 3:15,18.7,52,15.6,15.4
 2003/04/02, 3:30,18.6,52,15.5,15.5
 2003/04/02, 3:45,18.6,52,15.5,15.6
 2003/04/02, 4:00,18.4,52,15.3,15.6
 2003/04/02, 4:15,18.4,52,15.3,15.7
 2003/04/02, 4:30,18.3,52,15.3,15.8
 2003/04/02, 4:45,18.3,52,15.3,15.8
 2003/04/02, 5:00,18.2,53,15.2,15.9
 2003/04/02, 5:15,18,53,15.1,15.9
 2003/04/02, 5:30,18.1,53,15,16
 2003/04/02, 5:45,18,53,14.9,16
 2003/04/02, 6:00,18,52,14.8,14.6
 2003/04/02, 6:15,17.9,54,14.9,14.6
 2003/04/02, 6:30,19.1,54,14.9,14.7
 2003/04/02, 6:45,21.2,50,16.1,14.7
 2003/04/02, 7:00,20.9,51,16,14.8
 2003/04/02, 7:15,21.6,50,15.5,14.8
 2003/04/02, 7:30,22,49,15.6,14.9
 2003/04/02, 7:45,21.7,49,15.6,14.9
 2003/04/02, 8:00,22.1,49,16.2,15
 2003/04/02, 8:15,21.5,49,16,15.1
 2003/04/02, 8:30,21,50,16,15.2
 2003/04/02, 8:45,20.9,50,16.3,15.3
 2003/04/02, 9:00,20.7,51,16.3,14.5
 2003/04/02, 9:15,20.7,51,16.3,14.5
 2003/04/02, 9:30,20.7,52,16.4,14.6
 2003/04/02, 9:45,20.4,52,16.5,14.6
 2003/04/02,10:00,20.2,52,16.4,14.7
 2003/04/02,10:15,20,52,16.6,14.8
 2003/04/02,10:30,19.8,56,17.1,14.8
 2003/04/02,10:45,19.5,54,17.4,14.9
 2003/04/02,11:00,19.2,54,17.3,15
 2003/04/02,11:15,19,54,17.4,15
 2003/04/02,11:30,18.9,55,17.5,15.1
 2003/04/02,11:45,18.8,55,17.8,15.2
 2003/04/02,12:00,19,56,18,15.2
 2003/04/02,12:15,19,57,18.3,15.3
 2003/04/02,12:30,19,56,18.4,15.3
 2003/04/02,12:45,19,55,18.5,15.4
 2003/04/02,13:00,18.9,55,18.6,15.4
 2003/04/02,13:15,19,55,18.4,15.5
 2003/04/02,13:30,18.9,54,18.5,15.5
 2003/04/02,13:45,18.8,55,18.3,15.6
 2003/04/02,14:00,18.8,55,18.3,15.7
 2003/04/02,14:15,18.7,56,18.3,14.8
 2003/04/02,14:30,18.7,56,18.2,14.8
 2003/04/02,14:45,18.7,57,18.2,14.8
 2003/04/02,15:00,18.8,57,18.2,14.9
 2003/04/02,15:15,18.8,58,18.2,14.9
 2003/04/02,15:30,18.9,59,18.2,15
 2003/04/02,15:45,18.8,58,17.9,15
 2003/04/02,16:00,18.7,58,17.4,15.1
 2003/04/02,16:15,18.9,58,17.1,15.1
 2003/04/02,16:30,18.9,58,16.8,15.2
 2003/04/02,16:45,18.9,58,16.7,15.3
 2003/04/02,17:00,18.9,57,16.4,15.3
 2003/04/02,17:15,18.7,58,16,15.4
 2003/04/02,17:30,18.6,57,15.8,15.5
 2003/04/02,17:45,18.7,57,15.6,15.5
 2003/04/02,18:00,18.6,56,16.2,14.7
 2003/04/02,18:15,18.5,57,17,14.8
 2003/04/02,18:30,18.7,59,17,14.8
 2003/04/02,18:45,18.8,59,17.1,14.9
 2003/04/02,19:00,18.7,59,16.6,14.9
 2003/04/02,19:15,18.9,61,16.8,15
 2003/04/02,19:30,19,60,16.2,15
 2003/04/02,19:45,18.9,59,15.9,15.1
 2003/04/02,20:00,18.9,57,15.9,15.2
 2003/04/02,20:15,18.7,56,15.6,15.2
 2003/04/02,20:30,18.6,56,15.4,15.3
 2003/04/02,20:45,18.6,55,15.6,15.3
 2003/04/02,21:00,18.4,54,15.2,15.4
 2003/04/02,21:15,18.2,54,15.5,15.5
 2003/04/02,21:30,19.6,54,16.7,15.5
 2003/04/02,21:45,20.3,51,16.1,15.6
 2003/04/02,22:00,20,51,15.8,15.6
 2003/04/02,22:15,20.2,50,15.5,15.7
 2003/04/02,22:30,20.3,49,15.7,15.7
 2003/04/02,22:45,20.4,49,15.8,15.8
 2003/04/02,23:00,20.4,49,15.3,15.8
 2003/04/02,23:15,20.4,49,15.2,15.8
 2003/04/02,23:30,20.4,48,15.1,15.9
 2003/04/02,23:45,20.4,48,15,15.9
 2003/04/03, 0:00,21.5,44,14.8,16
 2003/04/03, 0:15,20,47,14.9,16
 2003/04/03, 0:30,19.4,48,14.6,16.1
 2003/04/03, 0:45,19,48,14.4,16.1
 2003/04/03, 1:00,18.8,48,14.3,16.2
 2003/04/03, 1:15,18.5,49,14.1,14.5
 2003/04/03, 1:30,18.3,49,14.1,14.5
 2003/04/03, 1:45,18.1,50,14,14.5
 2003/04/03, 2:00,17.9,50,14,14.6
 2003/04/03, 2:15,17.7,50,14,14.6
 2003/04/03, 2:30,17.5,50,13.9,14.7
 2003/04/03, 2:45,17.4,50,13.8,14.7
 2003/04/03, 3:00,17.1,51,13.6,14.8
 2003/04/03, 3:15,17,51,13.6,14.8
 2003/04/03, 3:30,16.9,51,13.6,14.8
 2003/04/03, 3:45,16.9,51,13.5,14.9
 2003/04/03, 4:00,16.8,52,13.3,14.9
 2003/04/03, 4:15,16.6,52,13.3,14.9
 2003/04/03, 4:30,16.5,52,13.3,15
 2003/04/03, 4:45,16.3,52,13.1,15
 2003/04/03, 5:00,16.3,52,13.1,15
 2003/04/03, 5:15,16.2,52,13,15.1
 2003/04/03, 5:30,16.2,52,12.9,15.1
 2003/04/03, 5:45,16,52,12.9,15.1
 2003/04/03, 6:00,15.9,52,12.8,13.7
 2003/04/03, 6:15,17.4,51,12.7,13.7
 2003/04/03, 6:30,18,51,12.8,13.7
 2003/04/03, 6:45,18.5,50,13.4,13.7
 2003/04/03, 7:00,21.4,45,13.7,13.8
 2003/04/03, 7:15,22.1,44,13.8,13.8
 2003/04/03, 7:30,21.9,43,13.9,13.9
 2003/04/03, 7:45,21.6,44,14.4,13.9
 2003/04/03, 8:00,21.3,45,14.9,14
 2003/04/03, 8:15,21.3,45,15.1,14
 2003/04/03, 8:30,20.6,46,15.1,14.1
 2003/04/03, 8:45,20.2,44,15.3,14.1
 2003/04/03, 9:00,19.8,43,15.5,14.2
 2003/04/03, 9:15,19.4,44,15.8,14.3
 2003/04/03, 9:30,18.7,39,15.8,14.3
 2003/04/03, 9:45,18.5,42,16,14.4
 2003/04/03,10:00,18.4,44,16.2,13.3
 2003/04/03,10:15,18.4,45,16.5,13.3
 2003/04/03,10:30,18.3,46,16.6,13.4
 2003/04/03,10:45,18.3,46,16.8,13.4
 2003/04/03,11:00,18.3,47,17,13.5
 2003/04/03,11:15,18.3,47,17.1,13.6
 2003/04/03,11:30,18.3,47,17.4,13.6
 2003/04/03,11:45,18.4,48,17.7,13.7
 2003/04/03,12:00,18.4,48,17.9,13.8
 2003/04/03,12:15,18.6,48,18.2,13.9
 2003/04/03,12:30,18.7,49,18.6,13.7
 2003/04/03,12:45,19,53,19.1,13.7
 2003/04/03,13:00,19.1,51,19.8,13.8
 2003/04/03,13:15,19.3,49,20.4,13.9
 2003/04/03,13:30,19,43,20.6,14
 2003/04/03,13:45,19.1,45,21.3,14
 2003/04/03,14:00,19.2,47,22.5,14.1
 2003/04/03,14:15,19.4,47,22,14.2
 2003/04/03,14:30,19.4,47,21.9,14.3
 2003/04/03,14:45,19.5,47,22.5,14.4
 2003/04/03,15:00,19.6,47,22.6,14.5
 2003/04/03,15:15,19.8,48,23.1,14.6
 2003/04/03,15:30,19.8,48,22.4,14.7
 2003/04/03,15:45,19.9,48,22,14.8
 2003/04/03,16:00,20,47,22.7,14.9
 2003/04/03,16:15,20.2,47,23.5,15
 2003/04/03,16:30,20.4,47,23.2,15.4
 2003/04/03,16:45,20.4,47,22.6,15
 2003/04/03,17:00,20.5,46,22.4,15.1
 2003/04/03,17:15,20.6,47,22.2,15.2
 2003/04/03,17:30,20.5,46,22,15.3
 2003/04/03,17:45,20.4,47,21.5,15.4
 2003/04/03,18:00,20.3,48,21.2,15.5
 2003/04/03,18:15,20.2,48,20.3,15.7
 2003/04/03,18:30,20.3,51,20.4,15.8
 2003/04/03,18:45,20.3,51,19.6,15.9
 2003/04/03,19:00,20.3,51,19.9,16
 2003/04/03,19:15,20.4,51,19.3,16.1
 2003/04/03,19:30,20.3,51,18.7,16.2
 2003/04/03,19:45,20.4,51,18.3,16.2
 2003/04/03,20:00,20.3,49,17.9,16.4
 2003/04/03,20:15,20.3,49,17.6,16.4
 2003/04/03,20:30,20.1,48,17.3,16.5
 2003/04/03,20:45,20,48,17.1,16.6
 2003/04/03,21:00,19.8,48,16.9,16.7
 2003/04/03,21:15,19.8,47,17.3,16.8
 2003/04/03,21:30,19.6,48,17.6,16.8
 2003/04/03,21:45,19.5,48,17.4,16.9
 2003/04/03,22:00,19.4,48,16.7,17
 2003/04/03,22:15,19.3,49,16.3,17
 2003/04/03,22:30,19.9,49,16.2,17.1
 2003/04/03,22:45,20,49,16.6,17.1
 2003/04/03,23:00,20.1,49,16,17.2
 2003/04/03,23:15,20.1,49,15.9,17.2
 2003/04/03,23:30,20.1,49,16,17.3
 2003/04/03,23:45,20.1,49,15.8,17.3
 2003/04/04, 0:00,20.1,49,15.8,15.7
 2003/04/04, 0:15,19.8,49,15.7,15.8
 2003/04/04, 0:30,19.6,49,15.5,15.8
 2003/04/04, 0:45,19.4,49,15.4,15.8
 2003/04/04, 1:00,19.3,49,15.3,14.6
 2003/04/04, 1:15,19,49,15.1,14.7
 2003/04/04, 1:30,19,49,15,14.2
 2003/04/04, 1:45,18.7,49,14.9,14.2
 2003/04/04, 2:00,18.6,49,14.8,14.2
 2003/04/04, 2:15,18.6,49,14.8,14.3
 2003/04/04, 2:30,18.5,49,14.6,14.3
 2003/04/04, 2:45,18.3,50,14.4,14.4
 2003/04/04, 3:00,18.1,50,14.4,14.4
 2003/04/04, 3:15,18.1,49,14.2,14.5
 2003/04/04, 3:30,17.9,50,14.3,14.5
 2003/04/04, 3:45,17.8,50,14.3,14.6
 2003/04/04, 4:00,17.7,50,14.4,14.7
 2003/04/04, 4:15,17.6,50,14.4,14.7
 2003/04/04, 4:30,17.6,50,14.3,14.8
 2003/04/04, 4:45,17.5,50,14.2,14.8
 2003/04/04, 5:00,17.5,50,14.2,14.9
 2003/04/04, 5:15,17.4,50,14.2,14.9
 2003/04/04, 5:30,17.2,50,14.2,14.9
 2003/04/04, 5:45,17.3,50,14.3,15
 2003/04/04, 6:00,17.2,49,14.1,14.2
 2003/04/04, 6:15,17.1,50,14.2,14.1
 2003/04/04, 6:30,17.3,52,14.1,14.2
 2003/04/04, 6:45,21.4,46,15.3,14.2
 2003/04/04, 7:00,20.3,49,15.5,14.3
 2003/04/04, 7:15,21.8,47,15.7,14.3
 2003/04/04, 7:30,21.9,47,15.6,14.4
 2003/04/04, 7:45,22.2,46,15.8,14.4
 2003/04/04, 8:00,21.8,46,16.4,13
 2003/04/04, 8:15,21.5,47,16.4,13
 2003/04/04, 8:30,20.7,47,16.3,13.1
 2003/04/04, 8:45,20.3,48,16.5,13.2
 2003/04/04, 9:00,20.1,48,16.2,13.3
 2003/04/04, 9:15,19.7,48,15.9,13.2
 2003/04/04, 9:30,19.5,49,15.8,13.2
 2003/04/04, 9:45,19.4,50,15.7,13.3
 2003/04/04,10:00,19.1,49,15.6,13.4
 2003/04/04,10:15,18.9,49,15.5,13.4
 2003/04/04,10:30,18.7,50,15.5,13.5
 2003/04/04,10:45,18.6,50,15.5,13.6
 2003/04/04,11:00,18.4,50,15.6,13.7
 2003/04/04,11:15,18.4,50,15.6,13.7
 2003/04/04,11:30,18.3,50,15.5,13.7
 2003/04/04,11:45,18.2,50,15.6,13.7
 2003/04/04,12:00,18.1,51,15.5,13.8
 2003/04/04,12:15,18,51,15.7,13.8
 2003/04/04,12:30,20.8,51,15.8,13.9
 2003/04/04,12:45,21.2,50,15.8,14
 2003/04/04,13:00,21.7,49,15.8,14
 2003/04/04,13:15,21.2,49,15.8,14.1
 2003/04/04,13:30,20.4,50,15.5,14.2
 2003/04/04,13:45,20,50,15.5,14.2
 2003/04/04,14:00,19.6,50,15.4,14.3
 2003/04/04,14:15,19.4,50,15.1,14
 2003/04/04,14:30,19.2,50,15.1,14.1
 2003/04/04,14:45,18.9,51,15.1,14.1
 2003/04/04,15:00,19,51,15.1,14.2
 2003/04/04,15:15,18.8,52,15,14.2
 2003/04/04,15:30,18.6,54,14.8,14.3
 2003/04/04,15:45,18.6,53,14.7,14.3
 2003/04/04,16:00,18.5,52,14.8,14.4
 2003/04/04,16:15,18.3,52,14.6,14.5
 2003/04/04,16:30,18.2,52,14.5,14.5
 2003/04/04,16:45,18.2,52,14.4,14.6
 2003/04/04,17:00,18.2,52,14.4,13.9
 2003/04/04,17:15,18.1,52,14.2,14
 2003/04/04,17:30,18,52,14.2,14
 2003/04/04,17:45,17.9,52,14.1,14.1
 2003/04/04,18:00,17.7,52,14.5,14.1
 2003/04/04,18:15,17.8,52,15.3,14.2
 2003/04/04,18:30,17.8,53,15,14.2
 2003/04/04,18:45,17.8,53,17.6,14.3
 2003/04/04,19:00,17.7,52,16.5,14.3
 2003/04/04,19:15,17.7,54,16.3,14.4
 2003/04/04,19:30,18.1,56,15.8,14.4
 2003/04/04,19:45,18.1,56,15.5,14.5
 2003/04/04,20:00,18,55,16.3,14.5
 2003/04/04,20:15,17.8,54,15.5,14.6
 2003/04/04,20:30,17.8,54,15.1,14.7
 2003/04/04,20:45,18.3,55,14.9,14.7
 2003/04/04,21:00,18.8,54,15,14.7
 2003/04/04,21:15,19.1,53,14.8,14.8
 2003/04/04,21:30,19.1,53,14.9,14.8
 2003/04/04,21:45,19.3,52,15.2,14.2
 2003/04/04,22:00,19.3,53,14.8,14.2
 2003/04/04,22:15,19.4,53,14.4,14.3
 2003/04/04,22:30,19.5,53,14.4,14.3
 2003/04/04,22:45,19.6,52,14.3,14.4
 2003/04/04,23:00,19.7,52,14.4,14.4
 2003/04/04,23:15,19.7,52,14.2,14.5
 2003/04/04,23:30,19.7,51,14.2,14.5
 2003/04/04,23:45,19.3,51,14.1,13.8
 2003/04/05, 0:00,19,51,14,13.9
 2003/04/05, 0:15,18.6,51,14,13.9
 2003/04/05, 0:30,18.5,51,13.8,14
 2003/04/05, 0:45,18.1,51,13.8,14
 2003/04/05, 1:00,18.1,51,13.7,14.1
 2003/04/05, 1:15,17.9,52,13.7,14.1
 2003/04/05, 1:30,17.7,52,13.6,14.1
 2003/04/05, 1:45,17.5,52,13.4,14.2
 2003/04/05, 2:00,17.3,52,13.4,14.2
 2003/04/05, 2:15,17.2,52,13.2,14.3
 2003/04/05, 2:30,17,52,13.2,14.3
 2003/04/05, 2:45,17,52,13.1,14.4
 2003/04/05, 3:00,16.8,53,12.7,14.4
 2003/04/05, 3:15,16.7,52,12.4,14.4
 2003/04/05, 3:30,16.5,53,12.4,14.5
 2003/04/05, 3:45,16.5,53,12.3,14.5
 2003/04/05, 4:00,16.4,53,12.2,14.5
 2003/04/05, 4:15,16.3,53,12.2,14.6
 2003/04/05, 4:30,16.1,53,12,13.2
 2003/04/05, 4:45,15.9,53,12,13.2
 2003/04/05, 5:00,15.8,53,12,13.2
 2003/04/05, 5:15,15.9,53,11.9,13.3
 2003/04/05, 5:30,15.6,53,11.9,13.3
 2003/04/05, 5:45,15.5,54,11.8,13.4
 2003/04/05, 6:00,15.5,53,11.7,13.4
 2003/04/05, 6:15,15.4,54,11.6,13.4
 2003/04/05, 6:30,15.3,54,11.6,13.5
 2003/04/05, 6:45,15.2,54,11.6,13.5
 2003/04/05, 7:00,15.1,54,11.6,13.5
 2003/04/05, 7:15,14.9,54,11.6,13.5
 2003/04/05, 7:30,14.9,54,11.6,12.5
 2003/04/05, 7:45,16.8,53,12,12.5
 2003/04/05, 8:00,21.2,45,12.3,12.5
 2003/04/05, 8:15,22.2,44,12.9,12.6
 2003/04/05, 8:30,19.9,48,12.7,12.6
 2003/04/05, 8:45,19.5,49,12.7,12.7
 2003/04/05, 9:00,19.3,49,12.9,12.5
 2003/04/05, 9:15,18.9,49,12.9,11.9
 2003/04/05, 9:30,18.2,49,13.1,11.9
 2003/04/05, 9:45,17.7,50,14.3,12
 2003/04/05,10:00,17.7,51,13.2,12.1
 2003/04/05,10:15,19,49,13.6,12.1
 2003/04/05,10:30,18.5,48,13.7,12.2
 2003/04/05,10:45,18.3,47,13.8,12.2
 2003/04/05,11:00,18.1,47,13.8,12.1
 2003/04/05,11:15,17.5,49,13.6,12.1
 2003/04/05,11:30,19,47,13.7,12.1
 2003/04/05,11:45,19.7,46,13.8,12.2
 2003/04/05,12:00,19.8,47,14.1,12.2
 2003/04/05,12:15,20.3,48,14.3,12.3
 2003/04/05,12:30,20.4,50,14.4,12.4
 2003/04/05,12:45,20.6,49,14.8,12.4
 2003/04/05,13:00,20.9,48,15,12.5
 2003/04/05,13:15,21,46,15.1,12.5
 2003/04/05,13:30,20.6,46,14.7,12.3
 2003/04/05,13:45,20.2,47,15,12.4
 2003/04/05,14:00,20,47,14.7,12.4
 2003/04/05,14:15,19.8,48,14.8,12.5
 2003/04/05,14:30,19.7,49,15.8,12.5
 2003/04/05,14:45,19.8,49,15.2,12.6
 2003/04/05,15:00,19.7,49,15.2,12.7
 2003/04/05,15:15,19.6,49,15,12.7
 2003/04/05,15:30,19.5,49,15,12.8
 2003/04/05,15:45,20.8,47,15.4,12.9
 2003/04/05,16:00,21.1,46,15.1,13
 2003/04/05,16:15,20.9,46,14.9,13.1
 2003/04/05,16:30,21,46,14.6,12.3
 2003/04/05,16:45,21.4,45,14.7,12.5
 2003/04/05,17:00,21.4,45,14.5,12.5
 2003/04/05,17:15,21.3,46,14.1,12.6
 2003/04/05,17:30,21.5,48,13.9,12.7
 2003/04/05,17:45,21.5,49,13.8,12.8
 2003/04/05,18:00,21.6,49,13.8,12.8
 2003/04/05,18:15,21.6,49,13.6,12.9
 2003/04/05,18:30,21.7,48,13.4,13
 2003/04/05,18:45,21.8,48,13.5,13.1
 2003/04/05,19:00,21.9,48,13.3,13.2
 2003/04/05,19:15,21.8,47,13.3,13.3
 2003/04/05,19:30,21.8,46,13.3,13.3
 2003/04/05,19:45,21.8,45,13.2,13.4
 2003/04/05,20:00,21.9,45,13,13.5
 2003/04/05,20:15,21.9,44,13.2,13.6
 2003/04/05,20:30,21.9,43,13,13.6
 2003/04/05,20:45,21.8,43,12.8,13.7
 2003/04/05,21:00,21.6,41,12.9,13.8
 2003/04/05,21:15,21.5,41,13.1,13
 2003/04/05,21:30,21.1,42,16.6,13
 2003/04/05,21:45,20.9,44,16.9,13.1
 2003/04/05,22:00,20.6,44,15.1,13.2
 2003/04/05,22:15,20.6,43,14.7,13.3
 2003/04/05,22:30,20.5,44,15.2,13.3
 2003/04/05,22:45,20.4,44,14.3,13.4
 2003/04/05,23:00,20.4,45,13.8,13.5
 2003/04/05,23:15,20.4,45,14.2,13.5
 2003/04/05,23:30,20.3,44,13.8,13.6
 2003/04/05,23:45,20.3,45,12.9,13.7
 2003/04/06, 0:00,20.2,44,12.7,13.7
 2003/04/06, 0:15,20.3,44,12.5,13.8
 2003/04/06, 0:30,20.1,44,12.4,13.9
 2003/04/06, 0:45,20.1,44,12.1,13.9
 2003/04/06, 1:00,20.1,44,12,14
 2003/04/06, 1:15,20.1,44,12,14.1
 2003/04/06, 1:30,20.2,43,11.9,14.1
 2003/04/06, 1:45,19.9,43,11.8,12.7
 2003/04/06, 2:00,19.1,44,11.6,12.8
 2003/04/06, 2:15,18.7,44,11.4,12.8
 2003/04/06, 2:30,18.2,45,11.3,12.9
 2003/04/06, 2:45,17.9,45,11.1,12.9
 2003/04/06, 3:00,17.5,46,11.1,13
 2003/04/06, 3:15,17.2,46,10.9,13
 2003/04/06, 3:30,17,46,10.8,13.1
 2003/04/06, 3:45,16.7,47,10.6,13.1
 2003/04/06, 4:00,16.5,47,10.7,11.9
 2003/04/06, 4:15,16.3,47,10.4,11.9
 2003/04/06, 4:30,16,47,10.2,11.9
 2003/04/06, 4:45,15.8,47,10.2,12
 2003/04/06, 5:00,15.6,47,10,12
 2003/04/06, 5:15,15.4,47,9.9,12.1
 2003/04/06, 5:30,15.2,47,9.8,12.1
 2003/04/06, 5:45,15.1,47,9.7,12.2
 2003/04/06, 6:00,14.8,47,9.4,12.2
 2003/04/06, 6:15,14.7,47,9.5,12.2
 2003/04/06, 6:30,14.6,47,9.6,12.3
 2003/04/06, 6:45,14.3,48,9.8,12.3
 2003/04/06, 7:00,14.3,48,9.8,12.3
 2003/04/06, 7:15,15.1,48,10.4,11.3
 2003/04/06, 7:30,17.2,47,10.8,11.4
 2003/04/06, 7:45,18.2,44,11.1,11.4
 2003/04/06, 8:00,18,45,11.4,11.5
 2003/04/06, 8:15,17.6,46,11.5,11.5
 2003/04/06, 8:30,17.4,47,11.8,11.6
 2003/04/06, 8:45,17.6,47,12.7,11.7
 2003/04/06, 9:00,17.6,47,12.6,11.7
 2003/04/06, 9:15,17.5,47,12.8,11.8
 2003/04/06, 9:30,17.3,46,13,11.9
 2003/04/06, 9:45,17.3,46,13.3,12
 2003/04/06,10:00,17,43,13.5,12
 2003/04/06,10:15,17.2,42,13.8,12.1
 2003/04/06,10:30,16.8,35,13.9,11.7
 2003/04/06,10:45,17,39,14.1,11.8
 2003/04/06,11:00,17.2,41,14.2,11.9
 2003/04/06,11:15,17.4,41,14.5,11.3
 2003/04/06,11:30,17.4,41,14.8,11.4
 2003/04/06,11:45,19.1,44,15,11.2
 2003/04/06,12:00,19.1,44,15.5,11.2
 2003/04/06,12:15,19,42,15.8,11.3
 2003/04/06,12:30,19,42,16.2,11.6
 2003/04/06,12:45,18.7,41,16.5,11.7
 2003/04/06,13:00,18.4,41,17.1,11.7
 2003/04/06,13:15,18.2,42,17.9,11.9
 2003/04/06,13:30,18.1,41,18.6,12
 2003/04/06,13:45,17.9,42,19.5,12
 2003/04/06,14:00,17.7,41,20.1,12.1
 2003/04/06,14:15,17.8,42,20.2,12.2
 2003/04/06,14:30,17.7,42,20.1,12.2
 2003/04/06,14:45,17.8,42,19.8,12.3
 2003/04/06,15:00,18,43,20.8,12.4
 2003/04/06,15:15,18.2,44,21.2,12.5
 2003/04/06,15:30,18.6,44,20.5,12.6
 2003/04/06,15:45,18.9,42,20.2,12.7
 2003/04/06,16:00,19.1,41,20.2,12.8
 2003/04/06,16:15,19.1,41,20,12.9
 2003/04/06,16:30,19.1,41,19.7,12.9
 2003/04/06,16:45,19,42,19.4,13.1
 2003/04/06,17:00,19,42,19.2,13.1
 2003/04/06,17:15,19,42,19.3,13.2
 2003/04/06,17:30,18.9,42,19.5,13.4
 2003/04/06,17:45,18.9,43,21.3,13.4
 2003/04/06,18:00,18.7,46,19.7,13.5
 2003/04/06,18:15,18.8,45,18.4,13.6
 2003/04/06,18:30,18.8,46,18,13.6
 2003/04/06,18:45,18.8,46,17.5,13.7
 2003/04/06,19:00,19,48,17.4,13.8
 2003/04/06,19:15,19,48,16.8,13.9
 2003/04/06,19:30,19,48,16.2,13.9
 2003/04/06,19:45,19,47,16,14
 2003/04/06,20:00,19,46,15.6,14.1
 2003/04/06,20:15,19.1,46,15.5,14.2
 2003/04/06,20:30,19.1,46,15.1,14.2
 2003/04/06,20:45,19.2,46,15.4,14.3
 2003/04/06,21:00,19.3,46,15.8,14.4
 2003/04/06,21:15,19.4,45,14.8,14.4
 2003/04/06,21:30,19.4,45,16.8,14.5
 2003/04/06,21:45,19.5,45,15.3,14.6
 2003/04/06,22:00,19.6,45,15.1,14.6
 2003/04/06,22:15,19.5,45,15,14.7
 2003/04/06,22:30,19.5,45,15,14.8
 2003/04/06,22:45,19.5,45,14.8,14.8
 2003/04/06,23:00,19.5,44,14.5,14.9
 2003/04/06,23:15,19.3,44,14.1,13.8
 2003/04/06,23:30,19,44,13.6,13.9
 2003/04/06,23:45,18.7,44,13.5,13.9
 2003/04/07, 0:00,18.4,44,13.3,14
 2003/04/07, 0:15,18.2,44,13.2,14
 2003/04/07, 0:30,17.9,44,12.9,14.1
 2003/04/07, 0:45,17.7,44,12.8,14.1
 2003/04/07, 1:00,17.5,44,12.6,14.2
 2003/04/07, 1:15,17.4,44,12.5,14.2
 2003/04/07, 1:30,17.2,44,12.4,14.3
 2003/04/07, 1:45,17,45,12.1,14.3
 2003/04/07, 2:00,16.9,45,12.1,14.4
 2003/04/07, 2:15,16.7,45,12,14.4
 2003/04/07, 2:30,16.4,45,11.8,14.4
 2003/04/07, 2:45,16.3,45,11.6,14.5
 2003/04/07, 3:00,16.2,46,11.3,14.5
 2003/04/07, 3:15,16.1,46,11.4,14.5
 2003/04/07, 3:30,15.9,46,11.2,14.6
 2003/04/07, 3:45,15.9,46,11.1,14.6
 2003/04/07, 4:00,15.7,46,11,14.6
 2003/04/07, 4:15,15.5,46,10.9,14.6
 2003/04/07, 4:30,15.4,46,10.7,14.7
 2003/04/07, 4:45,15.3,46,10.4,14.7
 2003/04/07, 5:00,15.1,46,10.4,12.8
 2003/04/07, 5:15,15,47,10.3,12.8
 2003/04/07, 5:30,15.8,47,10.3,12.8
 2003/04/07, 5:45,16.9,45,10.4,12.8
 2003/04/07, 6:00,17.6,45,10.5,12.9
 2003/04/07, 6:15,17.9,43,10.6,12.9
 2003/04/07, 6:30,19.2,43,11.3,13
 2003/04/07, 6:45,22,38,12.2,13
 2003/04/07, 7:00,21.7,39,12.2,13.1
 2003/04/07, 7:15,20.3,41,12.2,13.1
 2003/04/07, 7:30,20,42,12.4,13.2
 2003/04/07, 7:45,19.9,43,13,13.2
 2003/04/07, 8:00,20,43,13.3,13.2
 2003/04/07, 8:15,20.1,44,13.7,13.3
 2003/04/07, 8:30,20.9,43,14.1,13.4
 2003/04/07, 8:45,21.3,43,14.9,13.4
 2003/04/07, 9:00,22.1,42,15.4,13.5
 2003/04/07, 9:15,22.2,43,15.7,13.6
 2003/04/07, 9:30,21.5,42,15.8,13.1
 2003/04/07, 9:45,20.6,38,15.6,13.2
 2003/04/07,10:00,20.3,40,16,13.2
 2003/04/07,10:15,20.1,40,16.3,13.3
 2003/04/07,10:30,19.8,37,16.3,13.4
 2003/04/07,10:45,19.4,36,16.5,12.9
 2003/04/07,11:00,19.2,36,16.8,12.9
 2003/04/07,11:15,19,35,17.1,13
 2003/04/07,11:30,18.6,36,17.2,13.1
 2003/04/07,11:45,18.6,37,17.2,13.1
 2003/04/07,12:00,18.5,38,17.5,13.2
 2003/04/07,12:15,18.7,39,18,13.3
 2003/04/07,12:30,18.7,39,18.6,13.4
 2003/04/07,12:45,18.7,39,19.2,13.5
 2003/04/07,13:00,18.7,38,19.9,13.5
 2003/04/07,13:15,18.9,37,20.6,13.6
 2003/04/07,13:30,18.9,35,20.8,13.7
 2003/04/07,13:45,18.9,34,20.4,13.8
 2003/04/07,14:00,18.9,33,21.9,13.9
 2003/04/07,14:15,19,33,22.1,14
 2003/04/07,14:30,19.1,34,22.2,14.1
 2003/04/07,14:45,19.2,35,21.6,14.2
 2003/04/07,15:00,19.3,36,21.6,14.3
 2003/04/07,15:15,19.4,35,22.2,14.4
 2003/04/07,15:30,19.4,34,21,14.4
 2003/04/07,15:45,19.3,35,20.6,14.5
 2003/04/07,16:00,19.4,35,20.4,14.7
 2003/04/07,16:15,19.5,36,20.4,14.8
 2003/04/07,16:30,19.5,37,20.1,14.9
 2003/04/07,16:45,19.4,38,20,14.9
 2003/04/07,17:00,19.4,38,19.8,14.7
 2003/04/07,17:15,19.4,39,19.7,14.8
 2003/04/07,17:30,19.3,40,19.5,14.9
 2003/04/07,17:45,19.3,41,19.4,14.9
 2003/04/07,18:00,19.4,41,19,15
 2003/04/07,18:15,19.4,42,19.2,15.1
 2003/04/07,18:30,19.5,45,19.4,15.2
 2003/04/07,18:45,19.6,44,20.9,15.3
 2003/04/07,19:00,19.6,47,19.8,15.4
 2003/04/07,19:15,19.7,47,19.4,15.5
 2003/04/07,19:30,19.9,47,19,15.6
 2003/04/07,19:45,19.9,46,18.8,15.7
 2003/04/07,20:00,19.8,45,18.9,15.8
 2003/04/07,20:15,19.7,45,18.6,15.9